Location: Nairn
(57.5833°N, 3.8667°W)
Time: 04:43:50
(UTC+00:00)

Explorer 7 - Pass Details

Date: 01 December 2020
Orbit: 484 x 678 km, 50.3° (Epoch: 17 January)

Event Time Altitude Azimuth Distance (km) Brightness Sun altitude
Exits shadow 06:27:47 14° 235° (SW) 1,591 8.8 -15.3°
Maximum altitude 06:29:20 17° 209° (SSW) 1,432 8.8 -15.1°
Drops below altitude 10° 06:31:56 10° 169° (SSE) 1,774 9.8 -14.8°
Sets 06:34:41 0° 148° (SSE) 2,624 11.1 -14.4°
